Location: Drocourt
(49.0571°N, 1.7669°E)
Time: 05:51:34
(UTC+00:00)

deb Delta 126 - Visible Passes

Search period start: 16 July 2024 00:00
Search period end: 26 July 2024 00:00
Orbit: 945 x 1007 km, 101.9° (Epoch: 15 July)

Date Brightness Start Highest point End Pass type
(mag) Time Alt. Az. Time Alt. Az. Time Alt. Az.
17 Jul ? 20:34:17 10° SSW 20:39:21 28° W 20:44:29 10° NW visible
18 Jul ? 21:00:11 10° SW 21:04:19 19° W 21:08:30 10° NW visible
19 Jul ? 21:27:00 10° WSW 21:29:21 12° W 21:31:42 10° WNW visible
21 Jul ? 20:29:31 10° SSW 20:34:49 33° W 20:40:14 10° NW visible
22 Jul ? 20:55:04 10° SW 20:59:38 22° W 21:04:15 10° NW visible
23 Jul ? 21:21:16 10° WSW 21:24:30 15° W 21:27:46 10° WNW visible
25 Jul ? 20:24:16 10° SSW 20:29:48 38° W 20:35:26 10° NNW visible
